This is the latest recevied weather packets stored in our database for station/object DM4XI-13. If no packets are shown the sender has not sent any weather packets the latest 10 day(s).
| Time | Temp. | Humidity | Pressure | Rain* | Wind** | Luminosity | Snow |
|---|---|---|---|---|---|---|---|
| 1777843374 | 18.89° C | 45% | 1010.8 hPa | 0 mm | 0.89 m/s, 310° | 0 W/m² | - |
| 1777843313 | 18.89° C | 45% | 1010.8 hPa | 0 mm | 1.34 m/s, 309° | 0 W/m² | - |
| 1777843253 | 18.89° C | 45% | 1010.6 hPa | 0 mm | 0.45 m/s, 285° | 0 W/m² | - |
| 1777843192 | 18.89° C | 45% | 1010.8 hPa | 0 mm | 0.89 m/s, 304° | 0 W/m² | - |
| 1777843131 | 18.89° C | 45% | 1010.7 hPa | 0 mm | 0.45 m/s, 242° | 0 W/m² | - |
| 1777843070 | 18.89° C | 45% | 1010.8 hPa | 0 mm | 0.89 m/s, 269° | 0 W/m² | - |
| 1777843009 | 18.89° C | 45% | 1010.7 hPa | 0 mm | 1.34 m/s, 325° | 0 W/m² | - |
| 1777842948 | 18.89° C | 45% | 1010.6 hPa | 0 mm | 1.34 m/s, 293° | 0 W/m² | - |
| 1777842886 | 18.89° C | 45% | 1010.7 hPa | 0 mm | 0.45 m/s, 308° | 0 W/m² | - |
| 1777842826 | 18.89° C | 45% | 1010.7 hPa | 0 mm | 0.89 m/s, 294° | 0 W/m² | - |
| 1777842764 | 18.89° C | 44% | 1010.6 hPa | 0 mm | 0.89 m/s, 287° | 0 W/m² | - |
| 1777842703 | 18.89° C | 45% | 1010.8 hPa | 0 mm | 0.89 m/s, 295° | 0 W/m² | - |
| 1777842642 | 18.89° C | 45% | 1010.7 hPa | 0 mm | 0.45 m/s, 248° | 0 W/m² | - |
| 1777842581 | 18.89° C | 45% | 1010.6 hPa | 0 mm | 0.89 m/s, 314° | 0 W/m² | - |
| 1777842520 | 18.89° C | 45% | 1010.7 hPa | 0 mm | 1.34 m/s, 287° | 0 W/m² | - |
| 1777842459 | 18.89° C | 45% | 1010.6 hPa | 0 mm | 0.89 m/s, 260° | 0 W/m² | - |
| 1777842398 | 18.89° C | 45% | 1010.5 hPa | 0 mm | 0.89 m/s, 278° | 0 W/m² | - |
| 1777842336 | 18.89° C | 45% | 1010.6 hPa | 0 mm | 0.45 m/s, 281° | 0 W/m² | - |
| 1777842275 | 18.89° C | 45% | 1010.6 hPa | 0 mm | 1.34 m/s, 295° | 0 W/m² | - |
| 1777842215 | 18.89° C | 45% | 1010.5 hPa | 0 mm | 0.89 m/s, 267° | 0 W/m² | - |
| 1777842154 | 18.89° C | 45% | 1010.5 hPa | 0 mm | 0.45 m/s, 284° | 0 W/m² | - |
| 1777842093 | 18.89° C | 45% | 1010.7 hPa | 0 mm | 0.89 m/s, 289° | 0 W/m² | - |
| 1777842032 | 18.89° C | 45% | 1010.5 hPa | 0 mm | 0.89 m/s, 311° | 0 W/m² | - |
| 1777841971 | 18.89° C | 45% | 1010.6 hPa | 0 mm | 0.89 m/s, 289° | 0 W/m² | - |
| 1777841910 | 18.89° C | 45% | 1010.5 hPa | 0 mm | 0.89 m/s, 333° | 0 W/m² | - |
* Rain latest hour (hover to see other rain measurements)
** Current wind speed in m/s (hover to see current wind gust speed)